ARIANE 5 DEB (SYLDA), 41947

Orbit data source: Space-Track

ARIANE 5 DEB (SYLDA), 41947 is space debris originally from a launch on Tue, 14 Feb 2017 UTC launched from the French Guiana (FRGUI). Debris objects in space refer to the collection of defunct objects orbiting the Earth. Examples of debris include non-operational satellites, rocket bodies, and fragments generated from explosions, collisions, or faulty payload assembly.

Loading next visibility...
Identifier
41947, 2017-007D
Orbit
Active
Country
Flag of FRFR
Related business
Manufacturer
ADS/Bremen
Mission
Spacecraft
Bus & Motor
SYLDA 5, Unknown motor
Mass
440 kg wet, 440 kg dry
Launch date (UTC)
2017-02-14 (9 years ago)
Launch vehicle
Unknown
Launch site
French Guiana (FRGUI)
Object type
Payload
Rocket body
Debris
Shape & HBR
Cyl, 2.8 m
Radar Cross Section
27.391 m², Large (>1 m²)

Expand to show TLE details & history
Last TLE update: 1 day ago

TLE from 1 day ago
0 ARIANE 5 DEB (SYLDA)
1 41947U 17007D   26124.54042363  .00203384  00000-0  50560-2 0  9990
2 41947   3.9251 177.8749 4492608  27.8498 350.3112  6.61999569110211
Epoch: 2026-05-04T12:58Z
TLE epoch observation values (Epoch: 2026-05-04T12:58:12.601Z)
Latitude
-0.00001°
Longitude
120.89416°
Altitude
464.422 km
Speed
9.123 km/s
True Right ascension
11h 51m 29s
True Declination
0° 00' 00"
Sunlit
Object was in full shadow at epoch
Visualization orbit readout
Latitude
Unknown
Longitude
Unknown
Altitude
Unknown
Speed
Unknown
Apparent Right ascension
Unknown
Apparent Declination
Unknown
Sunlit
N/A
Visualization observer readout
Local Sidereal Time
23:01:13
Azimuth
Unknown
Elevation
Unknown
Doppler factor
Unknown
Orbital elements
Apogee altitude
10,993.033 km
Perigee altitude
223.149 km
Semi-major axis
11,986.228 km
Eccentricity
0.44926
Inclination
3.9251°
RAAN
177.8749°
Arg. of periapsis
27.8498°
True anomaly
332.156°
Mean anomaly
350.3112°
Eccentric anomaly
342.62392°
Mean motion
1.65394 °/min
Orbital period
217.66 mins
BSTAR
0.005056
Loading maneuver chart data...
Computing Atmospheric mass density...
Loading historical data...
Loading historical data...
Loading historical data...
Loading historical data...
Loading historical data...
Loading historical data...
Loading historical data...
Other satellites on launch #7 in the year 2017 (2017-02-14 UTC)

Documentation

Showing up to 5 results
|